Hanford, CA

7:52 PM PST on December 14, 2017 (GMT -0800)
Hanford Municipal

Weather History for KHJO - November, 2011

Change the Weather History Date:

Tuesday, November 15, 2011

  Actual Average Record
Temperature  
Mean Temperature 53 °F 52 °F  
Max Temperature 67 °F 65 °F 78 °F (2008)
Min Temperature 38 °F 39 °F 30 °F (2000)
Degree Days  
Heating Degree Days 12    
Month to date heating degree days 194  
Since 1 July heating degree days 262  
Cooling Degree Days 0    
Month to date cooling degree days 0  
Year to date cooling degree days 1664  
Growing Degree Days 2 (Base 50)    
Moisture  
Dew Point 43 °F    
Average Humidity 74    
Maximum Humidity 96    
Minimum Humidity 52    
Precipitation  
Precipitation 0.00 in 0.03 in 0.88 in (1934)
Month to date precipitation 0.40 0.61  
Year to date precipitation 7.10 8.08  
Since 1 July precipitation 0.92  
Snow  
Snow 0.00 in - - ()
Month to date snowfall 0.0  
Since 1 July snowfall 0.0  
Since 1 September snowfall 0.0  
Snow Depth 0.00 in    
Sea Level Pressure  
Sea Level Pressure 30.14 in    
Wind  
Wind Speed 1 mph (SSE)    
Max Wind Speed 9 mph    
Max Gust Speed 12 mph    
Visibility 3 miles    
Events Fog    
T = Trace of Precipitation, MM = Missing Value Source: NWS Daily Summary

Daily Weather History Graph

Daily Weather History Graph

Search for Another Location

Airport or City:

Trip Planner

Search our weather history database for the weather conditions in past years. The results will help you decide how hot, cold, wet, or windy it might be!

Date:

Astronomy

Nov. 15, 2011 Rise Set
Actual Time 6:35 AM PST 4:50 PM PST
Civil Twilight 6:08 AM PST 5:17 PM PST
Nautical Twilight 5:36 AM PST 5:48 PM PST
Astronomical Twilight 5:06 AM PST 6:19 PM PST
Moon 9:04 PM PST 10:37 AM PST
Length of Visible Light 11h 09m
Length of Day
10h 14m
Waning Gibbous, 78% of the Moon is Illuminated
Nov 15
Waning Gibbous
Nov 18
Last Quarter
Nov 24
New
Dec 2
First Quarter
Dec 10
Full

Hourly Weather History & Observations

Time (PST) Temp. Windchill Dew Point Humidity Pressure Visibility Wind Dir Wind Speed Gust Speed Precip Events Conditions
1:53 AM 46.9 °F - 43.0 °F 86% 30.10 in 6.0 mi Calm Calm - N/A   Clear
2:53 AM 43.0 °F 40.3 °F 39.9 °F 89% 30.11 in 3.0 mi SE 4.6 mph - N/A   Clear
3:31 AM 42.8 °F - 39.2 °F 87% 30.10 in 2.5 mi Calm Calm - N/A   Clear
4:01 AM 42.8 °F - 39.2 °F 87% 30.11 in 0.2 mi Calm Calm - N/A Fog Fog
5:01 AM 39.2 °F - 37.4 °F 93% 30.12 in 2.5 mi Calm Calm - N/A   Clear
5:10 AM 41.0 °F - 37.4 °F 87% 30.11 in 5.0 mi Calm Calm - N/A   Clear
5:51 AM 39.2 °F - 35.6 °F 87% 30.13 in 2.5 mi Calm Calm - N/A   Scattered Clouds
5:53 AM 39.9 °F - 36.0 °F 86% 30.14 in 1.0 mi Calm Calm - N/A   Mist
5:56 AM 39.2 °F - 37.4 °F 93% 30.13 in 0.5 mi Calm Calm - N/A Fog Fog
6:03 AM 39.2 °F - 37.4 °F 93% 30.13 in 0.2 mi Calm Calm - N/A Fog Fog
6:53 AM 39.0 °F - 37.0 °F 93% 30.16 in 0.2 mi Calm Calm - N/A Fog Fog
7:15 AM 39.2 °F - 39.2 °F 100% 30.16 in 0.2 mi Calm Calm - N/A Fog Fog
7:53 AM 43.0 °F - 41.0 °F 93% 30.17 in 0.2 mi Calm Calm - N/A Fog Fog
8:53 AM 46.0 °F - 45.0 °F 96% 30.18 in 0.2 mi Calm Calm - N/A Fog Fog
9:09 AM 48.2 °F - 46.4 °F 93% 30.18 in 0.2 mi Calm Calm - N/A Fog Fog
9:17 AM 48.2 °F - 46.4 °F 93% 30.18 in 0.2 mi Calm Calm - N/A Fog Fog
9:27 AM 50.0 °F - 46.4 °F 87% 30.18 in 1.2 mi Calm Calm - N/A   Clear
9:29 AM 50.0 °F - 46.4 °F 87% 30.18 in 4.0 mi Calm Calm - N/A   Clear
9:53 AM 54.0 °F - 46.0 °F 75% 30.19 in 6.0 mi South 3.5 mph - N/A   Haze
10:53 AM 60.1 °F - 46.9 °F 62% 30.17 in 6.0 mi SSE 3.5 mph - N/A   Haze
11:53 AM 61.0 °F - 46.0 °F 58% 30.15 in 6.0 mi Calm Calm - N/A   Haze
12:53 PM 64.0 °F - 46.9 °F 54% 30.12 in 6.0 mi Variable 3.5 mph - N/A   Haze
1:53 PM 64.9 °F - 46.9 °F 52% 30.11 in 6.0 mi Variable 4.6 mph - N/A   Haze
2:53 PM 66.0 °F - 48.0 °F 52% 30.11 in 6.0 mi NNE 3.5 mph - N/A   Haze
3:53 PM 64.9 °F - 46.9 °F 52% 30.11 in 7.0 mi NW 5.8 mph - N/A   Clear
4:53 PM 62.1 °F - 48.0 °F 60% 30.10 in 7.0 mi Calm Calm - N/A   Clear
5:53 PM 55.0 °F - 48.0 °F 77% 30.12 in 7.0 mi Calm Calm - N/A   Clear
6:53 PM 52.0 °F - 46.9 °F 83% 30.13 in 6.0 mi Calm Calm - N/A   Haze
7:53 PM 50.0 °F - 45.0 °F 83% 30.15 in 5.0 mi Calm Calm - N/A   Haze
8:53 PM 48.9 °F - 46.0 °F 90% 30.16 in 4.0 mi Calm Calm - N/A   Clear
9:48 PM 46.4 °F - 42.8 °F 87% 30.15 in 2.5 mi Calm Calm - N/A   Clear
9:53 PM 45.0 °F - 41.0 °F 86% 30.16 in 1.2 mi Calm Calm - N/A   Clear
10:07 PM 46.4 °F 45.2 °F 42.8 °F 87% 30.15 in 2.5 mi SSW 3.5 mph - N/A   Clear
10:19 PM 46.4 °F - 42.8 °F 87% 30.16 in 3.0 mi Calm Calm - N/A   Clear
10:53 PM 46.0 °F - 43.0 °F 89% 30.16 in 3.0 mi Calm Calm - N/A   Clear
11:07 PM 46.4 °F - 42.8 °F 87% 30.15 in 2.5 mi Calm Calm - N/A   Clear
11:20 PM 46.4 °F - 42.8 °F 87% 30.15 in 1.2 mi Calm Calm - N/A   Clear
11:46 PM 44.6 °F - 41.0 °F 87% 30.15 in 2.5 mi Calm Calm - N/A   Clear
11:53 PM 44.1 °F - 41.0 °F 89% 30.16 in 1.2 mi Calm Calm - N/A   Clear